(244931) = 2007 RB39 = 2003 XM20

Discovered at Socorro on 2003-12-15 by LINEAR.

Orbit

Orbit type: Main Belt

Note: WebGL enabled browser required.

epoch2023-02-25.0
epoch JD2460000.5
perihelion date2020-08-29.80483
perihelion JD2459091.30483
argument of perihelion (°)329.71870
ascending node (°)32.72933
inclination (°)14.40621
eccentricity0.2525528
perihelion distance (AU)2.0028487
Tisserand w.r.t. Jupiter3.3
ΔV w.r.t. Earth (km/sec)9.9
semimajor axis (AU)2.6795856
mean anomaly (°)204.29583
mean daily motion (°/day)0.22469960
aphelion distance (AU)3.356
period (years)4.39
P-vector [x]0.99051481
P-vector [y]0.10132876
P-vector [z]-0.09280565
Q-vector [x]-0.02803206
Q-vector [y]0.81022494
Q-vector [z]0.58544833
absolute magnitude16.17
phase slope0.15
uncertainty0
referenceMPO 745323
observations used546
oppositions13
arc length (days)9009
first opposition used1998
last opposition used2023
residual rms (arc-secs)0.71
perturbers coarse indicatorM-v
perturbers precise indicator003Ek
first observation date used1998-09-22.0
last observation date used2023-05-23.0
computer nameMPCLINUX
JD of orbit computation2456789.270890
perihelion JD uncertainty (days)7.4935E-05
argument of perihelion uncertainty (°)1.9746E-05
ascending node uncertainty (°)1.4884E-05
inclination uncertainty (°)7.1241E-06
eccentricity uncertainty 6.2737E-08
perihelion distance uncertainty (AU)1.7810E-07
Minimum Orbit Intersection Distances (in AU)
for orbit epoch: 2460000.5, reference: E2023-KC5
Mercury1.63993
Venus1.27906
Earth1.01338
Mars0.60914
Jupiter2.13008
Saturn6.16746
Uranus15.1378
Neptune27.3596

Observations

555 total observations over interval: 1998 09 22.32186 – 2023 05 23.282938
These data are available for download (format description).

Date (UT) J2000 RA J2000 Dec Magn Location Ref
1998 09 22.32186 00 26 01.35 -14 46 44.0 18.4 R 699 – Lowell Observatory-LONEOS MPS 228982
1998 09 22.34667 00 25 59.61 -14 46 38.3   699 – Lowell Observatory-LONEOS MPS 228982
1998 09 22.37149 00 25 58.14 -14 46 34.4   699 – Lowell Observatory-LONEOS MPS 228982
2003 12 15.32445 07 35 42.56 +42 13 52.0 19.5   704 – Lincoln Laboratory ETS, New Mexico MPS 94854
2003 12 15.33753 07 35 41.86 +42 13 58.6 20.0   704 – Lincoln Laboratory ETS, New Mexico MPS 94854
2003 12 15.35050 07 35 41.02 +42 14 05.1 19.9   704 – Lincoln Laboratory ETS, New Mexico MPS 94854
2003 12 15.36348 07 35 40.32 +42 14 10.3 19.8   704 – Lincoln Laboratory ETS, New Mexico MPS 94854
2003 12 15.37638 07 35 39.44 +42 14 15.3 20.1   704 – Lincoln Laboratory ETS, New Mexico MPS 94854
2003 12 17.31433 07 33 43.42 +42 28 25.3 20.2   644 – Palomar Mountain/NEAT MPS 94854
2003 12 17.39175 07 33 38.47 +42 28 59.0 20.2   644 – Palomar Mountain/NEAT MPS 94854
2003 12 17.45745 07 33 34.20 +42 29 27.3 19.8   644 – Palomar Mountain/NEAT MPS 94854
2003 12 30.26091 07 18 21.00 +43 44 12.1 19.4   704 – Lincoln Laboratory ETS, New Mexico MPS 96392
2003 12 30.27300 07 18 19.92 +43 44 14.6 20.1   704 – Lincoln Laboratory ETS, New Mexico MPS 96392
2003 12 30.28510 07 18 18.81 +43 44 17.6 20.1   704 – Lincoln Laboratory ETS, New Mexico MPS 96392
2003 12 30.29728 07 18 18.06 +43 44 20.0 20.4   704 – Lincoln Laboratory ETS, New Mexico MPS 96392
2003 12 30.30939 07 18 17.04 +43 44 24.7 20.6   704 – Lincoln Laboratory ETS, New Mexico MPS 96392
2004 01 16.23152 06 56 16.15 +44 18 07.3 19.4   644 – Palomar Mountain/NEAT MPS 96644
2004 01 16.25531 06 56 14.36 +44 18 06.8 19.4   644 – Palomar Mountain/NEAT MPS 96644
2004 01 16.27661 06 56 12.76 +44 18 06.6 19.3   644 – Palomar Mountain/NEAT MPS 96644
2007 09 08.45108 03 27 31.06 +16 19 26.2 19.5 V 703 – Catalina Sky Survey MPS 216362
2007 09 08.45701 03 27 31.24 +16 19 28.0 19.6 V 703 – Catalina Sky Survey MPS 216362
2007 09 08.46295 03 27 31.24 +16 19 31.5 19.6 V 703 – Catalina Sky Survey MPS 216362
2007 09 08.46890 03 27 31.53 +16 19 35.2 20.0 V 703 – Catalina Sky Survey MPS 216362
2007 09 13.35825 03 30 04.25 +17 05 09.5 19.6   704 – Lincoln Laboratory ETS, New Mexico MPS 216362
2007 09 13.36993 03 30 04.59 +17 05 17.2 20.0   704 – Lincoln Laboratory ETS, New Mexico MPS 216362
2007 09 13.38161 03 30 04.86 +17 05 23.9 19.9   704 – Lincoln Laboratory ETS, New Mexico MPS 216362
2007 09 13.39340 03 30 05.11 +17 05 30.0 19.8   704 – Lincoln Laboratory ETS, New Mexico MPS 216362
2007 09 13.48464 03 30 07.38 +17 06 20.6 19.4 V G96 – Mt. Lemmon Survey MPS 216362
2007 09 13.49009 03 30 07.52 +17 06 23.5 19.5 V G96 – Mt. Lemmon Survey MPS 216362
2007 09 13.49559 03 30 07.66 +17 06 26.7 19.5 V G96 – Mt. Lemmon Survey MPS 216362
2007 09 13.50108 03 30 07.77 +17 06 29.8 19.3 V G96 – Mt. Lemmon Survey MPS 216362
2007 09 15.47145 03 30 55.54 +17 24 43.4 19.3 V G96 – Mt. Lemmon Survey MPS 216184
2007 09 15.47367 03 30 55.58 +17 24 44.5 19.3 V G96 – Mt. Lemmon Survey MPS 216184
2007 09 15.47578 03 30 55.65 +17 24 45.8 19.3 V G96 – Mt. Lemmon Survey MPS 216184
2007 09 15.47788 03 30 55.69 +17 24 46.9 19.2 V G96 – Mt. Lemmon Survey MPS 216184
2007 09 18.40154 03 31 52.03 +17 51 40.9 19.4 V G96 – Mt. Lemmon Survey MPS 216184
2007 09 18.40671 03 31 52.06 +17 51 43.7 19.3 V G96 – Mt. Lemmon Survey MPS 216184
2007 09 18.41185 03 31 52.14 +17 51 46.6 19.3 V G96 – Mt. Lemmon Survey MPS 216184
2007 09 18.41741 03 31 52.24 +17 51 49.6 19.4 V G96 – Mt. Lemmon Survey MPS 216184
2007 09 19.29915 03 32 05.82 +17 59 54.5 19.4   704 – Lincoln Laboratory ETS, New Mexico MPS 216184
2007 09 19.31116 03 32 05.96 +18 00 00.8 20.1   704 – Lincoln Laboratory ETS, New Mexico MPS 216184
2007 09 19.32311 03 32 06.06 +18 00 07.9 20.1   704 – Lincoln Laboratory ETS, New Mexico MPS 216184
2007 09 19.33505 03 32 06.25 +18 00 14.0 20.1   704 – Lincoln Laboratory ETS, New Mexico MPS 216184
2007 09 19.34700 03 32 06.41 +18 00 22.1 20.2   704 – Lincoln Laboratory ETS, New Mexico MPS 216184
2007 10 06.31066 03 30 43.86 +20 31 27.5 19.2   704 – Lincoln Laboratory ETS, New Mexico MPS 218624
2007 10 06.32159 03 30 43.50 +20 31 33.6 19.5   704 – Lincoln Laboratory ETS, New Mexico MPS 218624
2007 10 06.33251 03 30 43.28 +20 31 40.0 19.5   704 – Lincoln Laboratory ETS, New Mexico MPS 218624
2007 10 06.34345 03 30 42.98 +20 31 45.1 19.1   704 – Lincoln Laboratory ETS, New Mexico MPS 218624
2007 10 06.35437 03 30 42.65 +20 31 50.9 19.5   704 – Lincoln Laboratory ETS, New Mexico MPS 218624
2007 10 07.39054 03 30 15.70 +20 40 40.3   691 – Steward Observatory, Kitt Peak-Spacewatch MPS 218624
2007 10 07.40819 03 30 15.15 +20 40 49.6   691 – Steward Observatory, Kitt Peak-Spacewatch MPS 218624
2007 10 07.42583 03 30 14.62 +20 41 00.4   691 – Steward Observatory, Kitt Peak-Spacewatch MPS 218624
2007 10 07.43019 03 30 14.54 +20 41 01.3 18.9 r 699 – Lowell Observatory-LONEOS MPS 255209
2007 10 07.45205 03 30 13.85 +20 41 11.3   699 – Lowell Observatory-LONEOS MPS 255209
2007 10 07.47395 03 30 13.18 +20 41 22.5   699 – Lowell Observatory-LONEOS MPS 255209
2007 10 07.49576 03 30 12.49 +20 41 33.4   699 – Lowell Observatory-LONEOS MPS 255209
2007 10 08.31173 03 29 49.84 +20 48 28.3 18.8   704 – Lincoln Laboratory ETS, New Mexico MPS 218624
2007 10 08.32283 03 29 49.50 +20 48 34.3 19.7   704 – Lincoln Laboratory ETS, New Mexico MPS 218624
2007 10 08.33430 03 29 49.17 +20 48 39.5 19.5   704 – Lincoln Laboratory ETS, New Mexico MPS 218624
2007 10 08.34554 03 29 48.79 +20 48 45.5 19.5   704 – Lincoln Laboratory ETS, New Mexico MPS 218624
2007 10 08.35665 03 29 48.40 +20 48 51.2 19.5   704 – Lincoln Laboratory ETS, New Mexico MPS 218624
2007 10 11.31093 03 28 11.36 +21 13 27.3 19.0   704 – Lincoln Laboratory ETS, New Mexico MPS 220471
2007 10 11.32220 03 28 10.95 +21 13 33.1 19.5   704 – Lincoln Laboratory ETS, New Mexico MPS 220471
2007 10 11.33333 03 28 10.51 +21 13 38.4 19.4   704 – Lincoln Laboratory ETS, New Mexico MPS 220471
2007 10 11.34450 03 28 10.08 +21 13 44.3 19.0   704 – Lincoln Laboratory ETS, New Mexico MPS 220471
2007 10 11.35562 03 28 09.63 +21 13 49.4 19.2   704 – Lincoln Laboratory ETS, New Mexico MPS 220471
2007 10 11.40993 03 28 07.47 +21 14 16.6 19.0 V 691 – Steward Observatory, Kitt Peak-Spacewatch MPS 220472
2007 10 11.42762 03 28 06.77 +21 14 25.2 19.0 V 691 – Steward Observatory, Kitt Peak-Spacewatch MPS 220472
2007 10 11.44531 03 28 06.08 +21 14 34.0 19.0 V 691 – Steward Observatory, Kitt Peak-Spacewatch MPS 220472
2007 10 14.31043 03 26 12.37 +21 37 44.0 18.8   704 – Lincoln Laboratory ETS, New Mexico MPS 220472
2007 10 14.32167 03 26 11.85 +21 37 49.8 19.4   704 – Lincoln Laboratory ETS, New Mexico MPS 220472
2007 10 14.33290 03 26 11.36 +21 37 55.6 19.3   704 – Lincoln Laboratory ETS, New Mexico MPS 220472
2007 10 14.34416 03 26 10.83 +21 38 02.2 19.1   704 – Lincoln Laboratory ETS, New Mexico MPS 220472
2007 10 14.35543 03 26 10.31 +21 38 06.5 19.1   704 – Lincoln Laboratory ETS, New Mexico MPS 220472
2007 10 19.40676 03 22 05.91 +22 17 08.4 18.8 V 691 – Steward Observatory, Kitt Peak-Spacewatch MPS 222498
2007 10 19.42449 03 22 04.92 +22 17 16.2 18.9 V 691 – Steward Observatory, Kitt Peak-Spacewatch MPS 222498
2007 10 19.44223 03 22 03.91 +22 17 24.7 20.1 V 691 – Steward Observatory, Kitt Peak-Spacewatch MPS 222498
2007 10 23.32526 03 18 22.96 +22 45 28.0 18.8   704 – Lincoln Laboratory ETS, New Mexico MPS 223421
2007 10 23.33697 03 18 22.22 +22 45 33.3 19.2   704 – Lincoln Laboratory ETS, New Mexico MPS 223421
2007 10 23.34869 03 18 21.54 +22 45 39.1 19.1   704 – Lincoln Laboratory ETS, New Mexico MPS 223421
2007 10 23.36042 03 18 20.75 +22 45 42.9 18.8   704 – Lincoln Laboratory ETS, New Mexico MPS 223421
2007 11 01.16047 03 08 36.44 +23 41 41.8   691 – Steward Observatory, Kitt Peak-Spacewatch MPS 223421
2007 11 01.17811 03 08 35.14 +23 41 48.2   691 – Steward Observatory, Kitt Peak-Spacewatch MPS 223421
2007 11 01.19577 03 08 33.85 +23 41 54.5   691 – Steward Observatory, Kitt Peak-Spacewatch MPS 223421
2007 11 02.30831 03 07 13.64 +23 48 08.9 18.4   704 – Lincoln Laboratory ETS, New Mexico MPS 224817
